This is the latest recevied weather packets stored in our database for station/object VK6HGR-1. If no packets are shown the sender has not sent any weather packets the latest 10 day(s).
| Time | Temp. | Humidity | Pressure | Rain* | Wind** | Luminosity | Snow |
|---|---|---|---|---|---|---|---|
| 1777959910 | 24.44° C | 42% | 1021.8 hPa | - | - | - | - |
| 1777959011 | 25° C | 42% | 1021.8 hPa | - | - | - | - |
| 1777958115 | 24.44° C | 43% | 1021.9 hPa | - | - | - | - |
| 1777957215 | 24.44° C | 43% | 1022.2 hPa | - | - | - | - |
| 1777956313 | 24.44° C | 44% | 1022.4 hPa | - | - | - | - |
| 1777955411 | 23.89° C | 45% | 1022.6 hPa | - | - | - | - |
| 1777954511 | 23.33° C | 46% | 1022.8 hPa | - | - | - | - |
| 1777953613 | 23.33° C | 48% | 1023 hPa | - | - | - | - |
| 1777952711 | 22.78° C | 49% | 1023.3 hPa | - | - | - | - |
| 1777951810 | 22.22° C | 50% | 1023.5 hPa | - | - | - | - |
| 1777950910 | 21.67° C | 51% | 1023.7 hPa | - | - | - | - |
| 1777950011 | 21.11° C | 53% | 1023.8 hPa | - | - | - | - |
| 1777949112 | 20.56° C | 54% | 1023.9 hPa | - | - | - | - |
| 1777948211 | 20.56° C | 55% | 1024 hPa | - | - | - | - |
| 1777947310 | 20° C | 56% | 1024 hPa | - | - | - | - |
| 1777946411 | 18.89° C | 54% | 1024.1 hPa | - | - | - | - |
| 1777945510 | 18.33° C | 57% | 1024.1 hPa | - | - | - | - |
| 1777944613 | 17.78° C | 58% | 1024.2 hPa | - | - | - | - |
| 1777943710 | 17.22° C | 60% | 1024.3 hPa | - | - | - | - |
| 1777942811 | 16.11° C | 62% | 1024.2 hPa | - | - | - | - |
| 1777941910 | 15.56° C | 64% | 1024.3 hPa | - | - | - | - |
| 1777941012 | 15° C | 66% | 1024.2 hPa | - | - | - | - |
| 1777940111 | 13.89° C | 68% | 1024.1 hPa | - | - | - | - |
| 1777939212 | 13.33° C | 69% | 1024 hPa | - | - | - | - |
| 1777938314 | 13.33° C | 70% | 1023.8 hPa | - | - | - | - |
* Rain since midnight (hover to see other rain measurements)
** Current wind speed in m/s (hover to see current wind gust speed)